#timestamp,LO_Frequency,Hit,StdDev 
1665550815.4,286047003.8,N
1665550835.2,286047006.0,Y
1665550855.1,286047002.7,P
1665550856.0,286047002.7,P
1665550875.8,286047004.3,P
1665550895.6,286047002.0,N
1665550915.5,286047004.0,Y
1665550935.3,286047000.7,P
1665550955.2,286047000.1,N
1665550975.9,286047002.3,N
1665550995.7,286047001.7,N
1665551015.6,286047004.0,Y
1665551035.4,286046999.9,P
1665551055.3,286047000.4,N
1665551075.1,286047001.0,N
1665551095.8,286047001.1,N
1665551115.7,286047000.5,N
1665551135.5,286046999.9,N
1665551155.4,286047000.8,N
1665551175.2,286047001.2,N
1665551195.1,286046998.4,Y
1665551196.0,286046998.4,P
1665551215.8,286046999.3,N
1665551235.6,286046999.4,N
1665551255.5,286046998.3,N
1665551275.3,286047001.0,N
1665551295.2,286046998.5,N
1665551315.9,286046998.4,N
1665551335.7,286046997.0,Y
1665551355.6,286046998.9,P
1665551375.4,286046999.1,P
1665551395.2,286046997.1,P
1665551415.1,286046995.0,Y
1665551416.0,286046995.0,P
1665551435.8,286046997.8,N
1665551455.7,286046997.4,N
1665551475.5,286046996.7,N
1665551495.3,286046997.1,N
1665551515.2,286046997.4,N
1665551535.0,286046997.9,N
1665551535.9,286046997.9,N
1665551555.8,286046997.3,N
1665551575.6,286046999.2,N
1665551595.4,286046997.2,N
1665551615.3,286046997.3,N
1665551635.1,286046994.9,Y
1665551655.9,286046999.3,P
1665551675.7,286046998.3,N
1665551695.5,286046999.0,N
1665551715.4,286046998.5,N
1665551735.2,286046998.7,N
1665551755.0,286046999.0,N
1665551755.9,286046999.0,N
1665551775.8,286046999.2,N
1665551795.6,286046999.4,N
1665551815.5,286046999.3,N
1665551835.3,286046999.5,N
1665551855.1,286046997.0,Y
1665551875.9,286046999.0,P
1665551895.7,286046996.5,P
1665551915.6,286046999.6,N
1665551935.4,286046997.1,N
1665551955.2,286046996.8,N
1665551975.1,286046996.5,N
1665551976.0,286046996.5,N
1665551995.8,286046999.3,N
1665552015.6,286046998.9,N
1665552035.5,286046999.3,N
1665552055.3,286046999.5,N
1665552075.2,286046999.4,N
1665552095.9,286046996.6,N
1665552115.7,286046997.3,N
1665552135.6,286046997.8,N
1665552155.4,286046997.2,N
1665552175.2,286046997.2,N
1665552195.1,286046995.0,Y
1665552196.0,286046995.0,P
1665552215.8,286046996.5,N
1665552235.7,286046998.5,N
1665552255.5,286046998.3,N
1665552275.3,286046999.2,N
1665552295.2,286046999.5,N
1665552315.0,286046997.0,N
1665552315.9,286046997.0,N
1665552335.8,286046996.7,N
1665552355.6,286046996.7,N
1665552375.4,286046995.6,Y
1665552395.3,286046998.9,P
1665552415.1,286046998.3,N
1665552435.8,286046998.4,N
1665552455.7,286046998.2,Y
1665552475.5,286047002.2,P
1665552495.4,286047002.6,N
1665552515.2,286047000.1,N
1665552535.0,286047002.4,N
1665552535.9,286047002.4,N
1665552555.8,286047002.6,N
1665552575.6,286047002.8,N
1665552595.5,286046999.8,N
1665552615.3,286047002.7,N
1665552635.1,286047000.5,N
1665552655.9,286047000.5,N
1665552675.7,286047000.0,N
1665552695.5,286047000.8,N
1665552715.4,286047000.8,N
1665552735.2,286047000.4,N
1665552755.1,286047000.9,N
1665552756.0,286047000.9,N
1665552775.8,286046998.1,N
1665552795.6,286047000.6,N
1665552815.5,286047000.0,N
1665552835.3,286047002.4,N
1665552855.1,286046999.9,N
1665552875.9,286047000.4,N
1665552895.7,286047000.8,N
1665552915.6,286047000.9,N
1665552935.4,286046998.7,N
1665552955.2,286046998.9,N
1665552975.1,286046998.2,N
1665552976.0,286046998.2,N
1665552995.8,286047000.5,N
1665553015.6,286047000.6,N
1665553035.5,286046998.7,N
1665553055.3,286046998.1,N
1665553075.2,286047000.6,N
1665553095.9,286047000.0,N
1665553115.7,286047000.6,N
1665553135.6,286047000.0,N
1665553155.4,286047001.0,N
1665553175.2,286047000.4,N
1665553195.1,286047000.7,N
1665553196.0,286047000.7,N
1665553215.8,286046998.6,N
1665553235.7,286046998.5,N
1665553255.5,286046999.3,N
1665553275.3,286046998.8,N
1665553295.2,286046996.5,Y
1665553315.0,286046996.5,P
1665553315.9,286046996.5,N
1665553335.7,286046997.4,N
1665553355.6,286046997.1,N
1665553375.4,286046997.8,N
1665553395.3,286046997.5,N
1665553415.1,286046997.4,N
1665553416.0,286046997.4,N
1665553435.8,286046999.2,N
1665553455.7,286046998.3,N
1665553475.5,286046998.7,N
1665553495.3,286046999.5,N
1665553515.2,286046998.5,N
1665553535.0,286046998.5,N
1665553535.9,286046998.5,N
1665553555.8,286047001.1,N
1665553575.6,286047001.2,N
1665553595.4,286046998.9,N
1665553615.3,286046998.5,N
1665553635.1,286046998.9,N
1665553655.8,286046998.1,N
1665553675.7,286046998.2,N
1665553695.5,286046998.6,N
1665553715.4,286046998.6,N
1665553735.2,286046998.8,N
1665553755.0,286046998.4,N
1665553755.9,286046998.4,N
1665553775.8,286047000.9,N
1665553795.6,286047000.8,N
1665553815.4,286046998.6,N
1665553835.3,286047001.1,N
1665553855.1,286047000.8,N
1665553875.9,286046998.4,N
1665553895.7,286046999.1,N
1665553915.5,286046999.5,N
1665553935.4,286046998.9,N
1665553955.2,286046999.5,N
1665553975.0,286046999.0,N
1665553975.9,286046999.0,N
1665553995.8,286046996.8,Y
1665554015.6,286046999.4,P
1665554035.5,286046997.7,P
1665554055.3,286046996.8,P
1665554075.1,286046996.6,Y
1665554095.9,286047000.7,P
1665554115.7,286047002.4,N
1665554135.6,286046999.7,N
1665554155.4,286047000.6,N
1665554175.2,286046998.2,N
1665554195.1,286047000.7,N
1665554196.0,286047000.7,N
1665554215.8,286047000.7,N
1665554235.6,286047000.0,N
1665554255.5,286047001.6,N
1665554275.3,286047002.5,N
1665554295.2,286046999.9,N
1665554315.9,286047002.8,N
1665554335.7,286047001.3,N
1665554355.6,286047004.4,Y
1665554375.4,286047002.2,P
1665554395.2,286047002.2,N
